Home > Weather > Muktsar > Past weeks

Flag for India Past Weather in Muktsar, Punjab, India — Yesterday and Last 2 Weeks

Now
106 °F

Clear.


Feels Like: 103 °F
Forecast: 84 / 108 °F
Wind: 12 mph from West

Location: Lahore Airport

Current Time: May 27, 2016 at 2:03:22 PM

Latest Report: May 27, 2016 at 1:25 PM


Visibility: 4 mi

Pressure: 29.59 "Hg

Humidity: 17%

Dew Point: 52 °F

Location of MuktsarLocation

Past Weather in Muktsar — Graph

°F

Muktsar Temperature Yesterday

Maximum temperature yesterday: 106 °F (at 3:25 PM)
Minimum temperature yesterday: 79 °F (at 4:55 AM)
Average temperature yesterday: 93 °F

High & Low Weather Summary for the Past Weeks

 TemperatureHumidityPressure
High115 °F (May 18, 3:25 PM)83% (May 24, 4:25 AM)29.77 "Hg (May 24, 4:25 AM)
Low70 °F (May 24, 4:25 AM)9% (May 15, 2:25 PM)29.33 "Hg (May 23, 9:55 PM)
Average94 °F33%29.54 "Hg
* Reported May 12 12:55 PM — May 27 12:55 PM, Muktsar, Weather by CustomWeather, © 2016

Note: Actual official high and low records may vary slightly from our data, if they occured in-between our weather recording intervals... More about our weather records

Advertising

Muktsar Weather History for the Previous 24 Hours

Scroll right to see more
 ConditionsComfort  
Time TempWeatherWind HumidityBarometerVisibility
12:55 PM
Fri, May 27
104 °FClear.7 mph19%29.59 "Hg4 mi
12:25 PM102 °FClear.3 mph20%29.59 "Hg4 mi
11:55 AM100 °FPassing clouds.5 mph21%29.59 "Hg4 mi
11:25 AM100 °FPassing clouds.9 mph21%29.59 "Hg4 mi
10:55 AM99 °FPassing clouds.5 mph27%29.62 "Hg4 mi
10:25 AM97 °FPassing clouds.3 mph28%29.62 "Hg4 mi
9:55 AM93 °FHaze.3 mph28%29.62 "Hg3 mi
9:25 AM91 °FHaze.5 mph30%29.62 "Hg3 mi
8:55 AM88 °FHaze.No wind38%29.59 "Hg2 mi
8:25 AM88 °FHaze.8 mph38%29.59 "Hg2 mi
7:59 AM86 °FScattered clouds.6 mph43%29.59 "Hg2 mi
7:25 AM86 °FScattered clouds.No wind43%29.59 "Hg2 mi
6:55 AM84 °FScattered clouds.7 mph45%29.59 "Hg2 mi
6:25 AM82 °FThunderstorms. Cloudy.2 mph48%29.56 "HgN/A
5:55 AM82 °FScattered clouds.3 mph45%29.56 "Hg2 mi
5:25 AM82 °FThunderstorms. Overcast.No wind45%29.56 "HgN/A
4:55 AM82 °FPassing clouds.No wind48%29.56 "Hg2 mi
4:25 AM84 °FPassing clouds.13 mph45%29.53 "Hg2 mi
3:55 AM84 °FPassing clouds.3 mph43%29.53 "Hg2 mi
3:25 AM84 °FPassing clouds.9 mph43%29.53 "Hg2 mi
2:29 AM86 °FPassing clouds.10 mph40%29.56 "Hg2 mi
1:59 AM86 °FPassing clouds.5 mph40%29.56 "Hg2 mi
1:29 AM86 °FPassing clouds.No wind40%29.56 "Hg2 mi
12:29 AM88 °FPassing clouds.3 mph38%29.56 "Hg2 mi
11:59 PM
Thu, May 26
90 °FHaze.No wind31%29.56 "Hg2 mi
11:29 PM90 °FHaze.7 mph33%29.56 "Hg2 mi
10:59 PM91 °FHaze.12 mph30%29.59 "Hg2 mi
9:55 PM91 °FHaze.No wind30%29.56 "Hg2 mi
9:25 PM93 °FHaze.5 mph28%29.53 "Hg2 mi
8:59 PM95 °FPassing clouds.7 mph26%29.53 "Hg2 mi
8:30 PM99 °FPassing clouds.15 mph21%N/A1 mi
7:55 PM100 °FPassing clouds.7 mph20%29.56 "Hg2 mi
7:25 PM100 °FScattered clouds.7 mph20%29.53 "Hg2 mi
6:55 PM100 °FScattered clouds.3 mph20%29.50 "Hg2 mi
6:25 PM102 °FPassing clouds.3 mph18%29.47 "Hg4 mi
5:55 PM104 °FClear.3 mph20%29.47 "Hg4 mi
5:25 PM104 °FClear.3 mph20%29.47 "Hg4 mi
3:25 PM106 °FClear.No wind18%29.50 "Hg5 mi
2:55 PM104 °FClear.6 mph21%29.53 "Hg5 mi
2:25 PM104 °FClear.No wind21%29.53 "Hg5 mi
Weather by CustomWeather, © 2016

See weather overviewHow to use our weather pages